Regional Weather Roundup
Issued by NWS

Home | Current Version | Previous Version | Text Only | Print | Product List | Glossary Off
Versions: 1 2 3 4 5 6 7 8 9 10 11 12 13 14 15 16 17 18 19 20 21 22 23 24 25 26 27 28 29 30 31 32 33 34 35 36 37 38 39 40 41 42 43 44 45 46 47 48 49 50

000
ASUS43 KBIS 311310
RWRND

NORTH DAKOTA REGIONAL WEATHER ROUNDUP
NATIONAL WEATHER SERVICE BISMARCK ND
800 AM CDT MON AUG 31 2015

NOTE: "FAIR" INDICATES FEW OR NO CLOUDS BELOW 12,000 FEET WITH NO
SIGNIFICANT WEATHER AND/OR OBSTRUCTIONS TO VISIBILITY.


NDZ001>003-009>011-017-311400-
NORTHWEST NORTH DAKOTA

CITY           SKY/WX    TMP DP  RH WIND       PRES   REMARKS
WILLISTON        N/A    N/A N/A N/A MISG      29.84R
MINOT          CLOUDY    61  54  77 NW10      29.77R
MINOT AFB      CLOUDY    62  59  88 NW13      29.75R
$$

NDZ018>021-031>035-040>046-311400-
SOUTHWEST NORTH DAKOTA

CITY           SKY/WX    TMP DP  RH WIND       PRES   REMARKS
BISMARCK       CLOUDY    68  56  65 NW9G18    29.77R
DICKINSON      MOCLDY    57  52  83 NW5       29.87R
GARRISON         N/A     63  57  81 NW16      29.80R
HETTINGER ARPT MOCLDY    60  54  80 NW21G31   29.88R
$$

NDZ004>008-012>016-024-026-027-054-311400-
NORTHEAST NORTH DAKOTA

CITY           SKY/WX    TMP DP  RH WIND       PRES   REMARKS
GRAND FORKS    PTSUNNY   64  61  90 S7        29.66R
GRND FRKS AFB  PTSUNNY   65  62  90 S3        29.66R
DEVILS LAKE    CLOUDY    66  57  72 W14       29.70R
$$

NDZ022-023-025-028>030-036>039-047>053-311400-
SOUTHEAST NORTH DAKOTA

CITY           SKY/WX    TMP DP  RH WIND       PRES   REMARKS
FARGO          MOSUNNY   67  60  78 S14       29.69R
JAMESTOWN      CLOUDY    66  63  90 S8        29.67F
$$



USA.gov is the U.S. government's official web portal to all federal, state and local government web resources and services.